Home   Weather   Corona   Past weeks
Flag for USA

Past Weather in Corona, California, USA — Yesterday and Last 2 Weeks

Now
41 °F

Rain. Fog.


Feels Like: 39 °F
Forecast: 58 / 29 °F
Wind: 3 mph from North

Location: Chino Airport

Current Time: Feb 21, 2019 at 4:16:14 pm

Latest Report: Feb 21, 2019 at 3:32 pm


Visibility: 2 mi

Pressure: 29.65 "Hg

Humidity: 86%

Dew Point: 37 °F

Location of CoronaLocation

Past Weather in Corona — Graph

°F

Corona Temperature Yesterday

Maximum temperature yesterday: 50 °F (at 12:53 pm)
Minimum temperature yesterday: 33 °F (at 6:53 am)
Average temperature yesterday: 43 °F

High & Low Weather Summary for the Past Weeks

 TemperatureHumidityPressure
High65 °F (Feb 12, 1:53 pm)100% (Feb 10, 2:24 am)30.30 "Hg (Feb 10, 2:24 am)
Low30 °F (Feb 19, 3:53 am)22% (Feb 12, 1:53 pm)29.59 "Hg (Feb 21, 12:53 pm)
Average47 °F77%30.03 "Hg
* Reported Feb 6 2:53 pm — Feb 21 2:53 pm, Corona. Weather by CustomWeather, © 2019

Note: Actual official high and low records may vary slightly from our data, if they occured in-between our weather recording intervals... More about our weather records

Advertising

Corona Weather History for the Previous 24 Hours

Scroll right to see more
 ConditionsComfort  
Time TempWeatherWind HumidityBarometerVisibility
2:53 pm
Thu, Feb 21
43 °FLight rain. Mostly cloudy.7 mph76%29.63 "Hg9 mi
2:38 pm44 °FLight rain. Partly sunny.7 mph71%29.61 "Hg10 mi
2:23 pm45 °FThundershowers. Partly sunny.9 mph65%29.61 "Hg10 mi
1:53 pm46 °FPartly sunny.7 mph66%29.60 "Hg10 mi
12:53 pm54 °FPartly sunny.12 mph49%29.59 "Hg10 mi
11:53 am52 °FBroken clouds.9 mph53%29.60 "Hg10 mi
10:53 am50 °FBroken clouds.9 mph63%29.62 "Hg10 mi
8:53 am46 °FBroken clouds.9 mph83%29.63 "Hg10 mi
7:53 am43 °FBroken clouds.7 mph97%29.63 "Hg10 mi
6:53 am40 °FBroken clouds.6 mph100%29.62 "Hg7 mi
5:53 am41 °FPassing clouds.5 mph96%29.62 "Hg7 mi
5:34 am42 °FFog.3 mph96%29.63 "Hg6 mi
4:53 am43 °FFog.No wind100%29.62 "Hg4 mi
4:08 am43 °FFog.3 mph100%29.62 "Hg2 mi
3:33 am43 °FFog.3 mph100%29.63 "Hg2 mi
2:53 am44 °FLight rain. Fog.No wind96%29.64 "Hg4 mi
2:00 am44 °FFog.No wind100%29.65 "Hg5 mi
1:21 am43 °FFog.No wind100%29.66 "Hg6 mi
12:53 am44 °FFog.No wind96%29.67 "Hg6 mi
12:27 am44 °FLight rain. Fog.No wind96%29.68 "Hg4 mi
12:10 am44 °FLight rain. Fog.No wind100%29.69 "Hg2 mi
12:03 am44 °FLight rain. Fog.No wind100%29.69 "Hg3 mi
11:31 pm
Wed, Feb 20
44 °FLight rain. Fog.No wind96%29.70 "Hg2 mi
10:53 pm43 °FFog.No wind97%29.71 "Hg4 mi
9:53 pm44 °FLight rain. Fog.6 mph96%29.73 "Hg5 mi
8:53 pm45 °FLight rain. Fog.3 mph97%29.75 "Hg4 mi
7:53 pm45 °FLight rain. Fog.5 mph93%29.76 "Hg6 mi
6:53 pm47 °FOvercast.No wind80%29.78 "Hg8 mi
5:53 pm48 °FOvercast.No wind71%29.78 "Hg8 mi
4:53 pm48 °FOvercast.3 mph68%29.80 "Hg10 mi
Weather by CustomWeather, © 2019

See weather overview